Weather in Povorsk

Ukraine / Volyn Oblast     51°15′49″N   25°07′36″E
temp.,
°C
wind,
m/s
gust,
m/s
humid.,
%
clouds,
%
prec.,
mm/h
press.,
hPa
HPBL,
m
4 august, wed
wed400:00+16ese346261 0.0 101684
03:00+15se236698 0.0 101660
06:00+14sse227174 0.0 101625
09:00+19sse3562100 0.2 1016354
12:00+23sse4550100 0.2 10151178
15:00+25s5647100 0.3 10132140
18:00+23sw3655100 0.0 1012557
21:00+16nw11915 0.6 101419
5 august, thu
thu500:00+16ne119354 0.2 101433
03:00+15nw1195100 0.4 101311
06:00+15n229574 0.1 101260
09:00+17ne2290100 0.6 1012306
12:00+16ene2596100 0.3 1011310
15:00+18ene3588100 0.5 1010477
18:00+19ne457887 0.0 1009584
21:00+16ne61098100 5.9 1007368
6 august, fri
fri600:00+16ene71398100 23.3 1004519
03:00+16ese4997100 24.4 1002563
06:00+16s3119612 0.2 1000515
09:00+17ssw61192100 0.3 1000693
12:00+16ssw51092100 0.0 1002683
15:00+18wsw71075100 0.1 1003943
18:00+17wsw5875100 0.0 1005909
21:00+15w4879100 0.0 1007797
7 august, sat
sat700:00+14w51083100 0.0 1007812
03:00+13w489095 0.0 1009540
06:00+13w498886 0.0 1009543
09:00+15wnw47720 0.0 1011575
12:00+20w45510 0.0 10121337
15:00+23w46400 0.0 10121740
18:00+23wnw35430 0.0 10121746
21:00+17ene11670 0.0 101311
8 august, sun
sun800:00+15se227054 0.0 101429
03:00+14sse2376100 0.0 101444
06:00+14sse3480100 0.0 101570
09:00+19sse466696 0.0 1014288
12:00+25s575062 0.0 10141050
15:00+28s4643100 0.0 10141546
18:00+28s3547100 0.0 10131405
21:00+22sse37715 0.0 1014115